Wind_Speed
21 20 17 15 14 13 12 11 8 7 9 10 8 8 8 8 7 8 8 10 11 11 11 11 11 13 14 14 14 13 13 12 12 12 12 11 10 10 9 8 6 5 3 2
23 20 17 15 15 15 13 11 11 10 10 10 10 10 9 9 8 9 9 9 10 9 9 10 10 10 11 12 12 12 11 11 11 11 11 11 10 10 9 8 7 6 5 4
23 20 19 17 17 17 15 14 14 13 12 13 13 12 11 12 10 10 11 9 9 8 7 8 8 9 9 9 10 10 10 10 10 10 10 10 9 9 8 8 7 7 6 4
23 22 22 20 19 19 17 16 15 16 16 15 15 16 13 12 13 12 11 9 9 9 8 7 7 7 8 8 8 9 9 9 9 9 9 8 8 8 8 8 7 7 6 6
23 23 23 22 20 19 18 17 18 19 19 19 18 19 17 16 16 14 11 9 9 9 9 8 7 6 6 6 6 7 8 8 8 8 7 7 7 7 7 7 7 6 6 6
22 24 24 22 20 20 19 19 19 20 21 22 21 22 19 17 17 15 13 10 10 10 9 9 8 5 5 6 5 5 6 6 6 7 7 7 6 6 7 6 6 6 6 6
23 24 24 23 22 22 22 22 22 23 23 23 21 24 22 18 17 16 14 11 12 12 11 10 8 6 5 5 6 5 5 5 6 6 6 6 6 5 6 5 5 5 6 6
23 23 23 23 23 22 22 23 25 25 25 24 22 24 22 18 17 16 14 14 13 13 12 11 10 8 7 7 6 5 5 5 5 6 6 6 6 5 5 5 5 6 6 6
23 22 22 23 23 23 23 23 24 26 26 27 25 23 21 18 17 17 16 15 15 14 14 13 11 10 9 8 8 7 7 6 6 6 6 6 6 6 6 6 6 7 7 7
23 23 23 24 25 24 24 23 24 26 27 28 26 22 20 18 18 18 18 18 16 15 14 14 13 11 10 9 9 10 10 9 8 8 8 8 8 7 7 6 7 7 7 7
25 25 23 25 26 27 25 26 26 26 27 28 27 24 21 21 20 19 18 19 17 17 17 17 15 14 12 11 11 12 12 11 10 10 10 10 10 9 9 8 9 9 9 9
27 26 25 25 26 27 28 27 28 28 28 28 29 28 24 23 22 21 21 20 20 20 19 16 16 17 16 14 14 14 13 13 13 12 12 13 13 12 12 11 11 10 10 10
29 28 27 27 28 29 30 29 29 30 30 30 31 31 27 26 25 24 23 23 23 22 22 20 19 19 19 19 18 17 16 16 15 15 15 15 15 14 14 14 14 14 13 13
31 31 31 29 28 30 32 32 32 32 32 32 31 31 30 29 27 26 25 26 25 26 27 25 23 22 22 21 19 20 20 20 19 19 18 18 17 17 16 17 17 17 16 15
33 33 32 31 30 31 31 32 33 33 33 34 33 32 31 31 30 29 27 27 27 28 28 28 25 24 24 22 22 21 22 21 22 22 21 20 20 20 18 19 20 19 18 17
35 35 34 34 33 33 33 32 33 33 34 35 34 34 34 34 34 33 32 31 31 30 29 28 28 27 26 25 24 23 23 23 25 25 23 23 22 22 21 22 22 22 21 21
37 37 36 35 34 35 36 34 35 35 36 37 38 37 36 37 36 36 34 33 31 31 30 31 30 29 28 27 26 26 24 24 26 27 26 26 25 24 24 25 24 24 24 24
36 37 36 35 34 35 34 35 36 37 37 37 37 39 40 39 39 39 37 36 34 32 33 33 32 31 31 30 29 29 28 27 27 28 28 27 27 27 27 26 26 26 25 25
36 35 35 35 36 35 34 34 35 36 37 38 39 39 38 39 39 40 38 37 36 35 36 36 34 33 33 33 32 33 33 32 30 30 30 29 29 30 29 29 29 29 28 28
35 35 35 36 36 37 36 35 35 35 37 38 40 40 39 40 40 39 39 39 38 37 37 36 36 36 36 36 36 35 35 34 33 33 32 31 31 31 32 32 31 31 31 31
36 36 37 37 38 38 37 36 37 38 39 38 39 40 40 41 42 42 42 41 40 39 37 37 37 38 37 37 38 38 37 37 37 35 33 34 34 34 35 35 34 34 34 34
36 37 37 37 38 39 37 37 38 39 40 40 40 40 41 41 42 43 43 42 41 40 40 41 39 38 39 40 40 39 38 39 39 38 36 36 36 36 36 36 36 35 35 35
36 37 37 38 38 38 38 38 39 40 40 39 40 40 41 40 40 41 42 42 42 43 42 40 39 39 39 40 41 41 40 40 39 37 37 37 37 37 36 36 36 37 36 36
36 37 37 37 38 37 37 38 39 40 40 39 39 39 39 40 41 40 40 41 42 42 42 40 40 40 39 39 39 39 38 38 37 36 37 36 36 36 36 35 36 36 36 36
34 35 35 36 36 36 36 37 38 38 38 38 38 38 38 39 40 41 41 40 40 41 42 42 42 41 41 40 39 38 38 38 37 37 37 37 37 37 37 37 37 37 35 35
32 33 35 36 36 37 38 37 37 37 38 38 39 39 39 38 36 35 36 38 40 42 42 42 41 41 40 39 38 38 39 39 38 38 38 38 38 37 37 37 37 36 36 36
Wind_Direction
213 210 204 204 207 207 219 238 255 273 299 295 301 293 296 307 322 338 350 2 8 15 23 28 32 38 41 42 43 46 50 50 51 52 53 53 53 54 56 58 63 61 56 71
216 210 204 207 210 214 220 234 247 260 275 287 301 296 284 294 314 333 329 338 353 4 13 20 25 32 39 41 42 44 46 46 48 50 49 48 47 48 46 45 46 46 44 49
217 210 208 213 216 220 223 234 241 252 263 274 280 284 283 294 295 310 318 321 338 346 350 356 15 22 32 38 39 40 41 41 42 45 45 45 45 44 42 41 41 43 42 38
218 212 214 218 218 218 225 231 240 248 256 263 272 281 285 288 293 298 306 311 324 330 332 337 358 8 15 26 30 32 33 37 37 37 39 38 38 38 37 35 34 33 30 27
220 217 219 220 219 222 228 230 239 246 250 253 260 271 279 283 285 288 292 303 307 316 317 316 324 347 359 8 19 23 25 28 29 29 31 31 31 31 30 27 25 24 19 15
223 221 224 223 223 225 226 230 238 244 245 248 252 263 269 277 285 284 284 287 289 298 298 300 296 308 337 346 354 6 12 14 17 22 26 26 24 22 19 15 14 15 10 4
227 224 225 225 224 224 227 234 239 242 244 247 251 257 265 270 279 279 281 277 277 284 287 292 293 293 305 314 330 340 355 2 5 7 12 14 9 4 5 2 359 0 357 352
232 226 222 224 227 227 229 237 240 247 249 251 254 258 265 268 273 274 271 271 273 275 275 282 287 283 281 294 298 306 324 334 340 344 347 353 352 347 346 348 343 338 336 334
232 227 221 222 226 229 232 236 243 249 252 256 256 258 262 266 270 268 268 269 271 271 269 275 283 279 276 282 287 288 294 301 306 314 321 328 332 327 323 328 334 329 324 317
235 233 223 220 222 226 234 236 242 248 252 256 259 257 258 260 268 270 270 273 275 271 270 277 280 277 266 271 281 278 280 288 292 295 301 307 312 311 310 308 315 322 321 314
238 238 230 223 223 225 228 233 238 245 249 253 257 257 256 260 266 271 274 273 276 275 271 273 270 271 271 270 272 278 275 282 286 287 291 298 298 296 298 302 302 302 306 306
238 239 234 226 227 228 230 234 237 243 247 251 256 259 256 258 262 267 272 274 275 272 275 269 272 276 267 265 267 269 271 275 280 282 285 290 291 291 289 292 294 296 296 296
238 240 238 232 230 229 230 232 237 242 246 249 252 257 256 259 261 265 269 272 274 278 274 271 272 274 272 269 267 268 272 273 275 278 280 283 282 283 285 288 289 288 287 288
239 241 240 238 235 232 232 234 236 241 244 248 250 253 254 256 259 263 266 267 269 277 279 277 274 269 270 268 269 268 274 278 277 276 276 279 279 283 282 282 284 287 285 286
239 241 242 242 240 238 237 237 237 240 244 246 248 250 251 254 256 260 264 267 270 272 273 274 273 271 272 269 268 269 272 274 274 273 273 276 278 279 280 280 279 280 282 282
240 241 242 242 242 243 242 240 238 239 242 245 248 250 251 252 253 256 260 265 268 270 270 270 272 270 269 268 269 270 268 269 271 272 271 273 273 276 280 281 279 279 281 279
243 243 244 244 244 245 244 242 240 241 244 246 247 249 251 252 255 258 260 262 265 267 268 269 273 269 269 275 276 274 271 272 270 269 269 272 272 274 275 276 277 276 278 278
245 246 246 245 244 245 246 245 244 243 244 246 248 250 252 254 256 258 260 262 263 262 265 268 271 271 273 275 275 275 272 270 271 270 272 274 276 277 277 277 278 276 277 277
244 246 247 246 245 245 244 244 245 245 246 247 248 250 253 254 256 257 259 261 263 262 264 267 270 272 271 271 273 273 273 273 273 272 273 273 273 274 275 275 275 275 275 277
243 245 246 246 246 246 245 244 245 247 248 249 249 251 254 257 258 259 262 264 263 261 263 265 268 270 270 270 271 272 272 273 271 272 271 271 273 273 274 273 274 274 274 275
240 243 245 247 248 248 246 245 246 247 250 252 253 254 255 258 261 261 262 262 263 263 264 266 268 267 268 269 271 271 272 272 272 270 268 269 270 271 272 273 274 273 273 273
242 242 244 248 249 250 249 248 249 251 253 254 256 257 258 260 261 262 262 264 265 266 269 268 267 267 268 271 271 271 271 270 270 270 269 270 270 270 271 271 273 275 275 274
244 245 247 248 250 252 251 251 251 253 254 256 259 260 261 262 261 263 263 263 264 266 268 267 268 269 271 271 270 270 269 268 268 268 269 270 270 271 271 272 272 274 275 275
245 248 249 250 251 252 253 254 254 255 256 258 260 261 263 264 264 265 265 266 264 266 267 268 268 270 270 270 270 268 269 269 269 269 269 271 271 274 274 274 273 273 273 274
246 249 250 252 254 254 253 254 257 258 259 261 262 264 265 265 265 265 265 267 268 269 269 269 269 269 270 270 269 268 268 267 269 270 272 273 273 274 275 273 272 273 274 273
247 248 250 252 254 256 255 257 258 259 260 263 264 265 266 267 268 268 268 268 269 269 269 269 269 270 269 269 270 270 271 272 271 272 272 272 273 274 274 273 273 273 273 274
Height
5911 5914 5916 5918 5919 5921 5921 5922 5922 5922 5922 5922 5921 5921 5921 5920 5920 5919 5919 5918 5916 5914 5912 5910 5908 5906 5905 5903 5901 5900 5898 5897 5895 5894 5892 5891 5890 5889 5888 5887 5887 5886 5886 5885
5907 5910 5913 5914 5916 5917 5918 5919 5920 5920 5920 5919 5920 5919 5918 5918 5919 5918 5917 5917 5916 5915 5913 5911 5909 5908 5906 5904 5903 5901 5900 5898 5897 5895 5894 5892 5891 5890 5889 5888 5887 5887 5886 5885
5903 5908 5909 5910 5912 5913 5915 5916 5917 5918 5918 5917 5918 5918 5917 5917 5917 5917 5916 5915 5915 5914 5913 5911 5910 5909 5907 5906 5904 5903 5901 5900 5898 5897 5895 5894 5893 5891 5890 5889 5888 5887 5886 5885
5898 5902 5904 5905 5907 5909 5911 5914 5914 5915 5915 5915 5915 5914 5915 5914 5915 5915 5914 5913 5913 5913 5912 5911 5910 5909 5907 5906 5905 5904 5902 5901 5899 5898 5896 5895 5893 5892 5891 5890 5889 5887 5886 5885
5895 5898 5899 5901 5904 5906 5907 5909 5910 5910 5910 5911 5912 5912 5913 5912 5912 5912 5912 5911 5911 5910 5910 5910 5909 5908 5907 5906 5905 5904 5902 5901 5899 5898 5897 5895 5894 5893 5891 5890 5889 5888 5887 5885
5890 5893 5895 5898 5900 5902 5903 5904 5905 5905 5906 5907 5909 5909 5909 5909 5909 5909 5909 5909 5909 5908 5908 5908 5907 5906 5905 5905 5904 5903 5902 5900 5899 5898 5896 5895 5894 5893 5891 5890 5889 5888 5886 5885
5885 5888 5890 5893 5895 5898 5899 5900 5901 5901 5902 5903 5905 5904 5905 5906 5906 5905 5905 5905 5905 5906 5906 5906 5905 5904 5903 5903 5903 5902 5901 5899 5898 5897 5896 5894 5893 5892 5891 5889 5888 5887 5886 5884
5879 5883 5886 5888 5890 5893 5894 5895 5897 5898 5898 5898 5899 5898 5900 5901 5902 5901 5901 5902 5902 5903 5903 5903 5902 5901 5901 5901 5901 5900 5899 5898 5897 5896 5895 5893 5892 5891 5890 5888 5887 5886 5884 5883
5873 5878 5881 5883 5885 5888 5889 5891 5892 5893 5892 5893 5893 5894 5895 5896 5896 5896 5897 5897 5897 5898 5899 5899 5898 5899 5898 5898 5898 5898 5897 5896 5895 5894 5893 5891 5890 5889 5888 5886 5885 5884 5882 5881
5868 5871 5875 5878 5880 5882 5884 5886 5887 5887 5887 5886 5887 5889 5890 5890 5890 5891 5892 5892 5891 5893 5895 5895 5895 5895 5895 5895 5894 5895 5894 5894 5893 5891 5890 5889 5888 5887 5886 5885 5883 5882 5880 5879
5862 5865 5869 5872 5874 5876 5878 5880 5880 5881 5881 5881 5882 5885 5885 5885 5886 5886 5887 5888 5888 5889 5889 5890 5891 5891 5891 5891 5891 5891 5890 5890 5889 5888 5887 5886 5885 5884 5883 5882 5881 5879 5878 5877
5856 5859 5862 5866 5868 5870 5872 5873 5874 5875 5876 5876 5876 5880 5879 5880 5881 5881 5882 5883 5883 5884 5883 5884 5886 5886 5886 5886 5887 5886 5886 5885 5885 5884 5883 5883 5882 5881 5880 5879 5877 5876 5875 5874
5850 5852 5855 5859 5863 5864 5865 5867 5868 5869 5870 5870 5870 5873 5873 5874 5875 5876 5877 5877 5877 5878 5879 5879 5881 5881 5881 5881 5881 5881 5881 5881 5880 5880 5879 5878 5878 5877 5876 5875 5873 5872 5871 5870
5843 5845 5849 5852 5854 5857 5858 5860 5862 5862 5863 5863 5864 5866 5867 5868 5868 5870 5871 5872 5872 5872 5872 5873 5873 5874 5874 5875 5874 5875 5875 5874 5874 5874 5873 5873 5873 5872 5871 5870 5869 5868 5866 5865
5835 5838 5840 5843 5846 5848 5851 5853 5855 5856 5856 5857 5858 5859 5861 5862 5862 5863 5864 5865 5866 5866 5867 5867 5867 5867 5868 5868 5868 5868 5868 5868 5868 5867 5867 5867 5866 5866 5864 5864 5863 5863 5862 5860
5827 5829 5832 5835 5838 5840 5842 5845 5847 5848 5849 5849 5851 5853 5854 5855 5856 5857 5858 5858 5859 5859 5859 5860 5860 5860 5860 5861 5860 5859 5859 5860 5861 5860 5859 5860 5859 5859 5858 5858 5857 5856 5855 5854
5819 5821 5824 5827 5829 5831 5833 5836 5838 5840 5841 5842 5843 5846 5847 5848 5849 5850 5851 5851 5852 5852 5852 5853 5853 5852 5852 5853 5853 5853 5852 5852 5852 5852 5852 5851 5851 5851 5850 5850 5849 5848 5848 5847
5811 5813 5815 5818 5821 5823 5827 5827 5829 5831 5833 5834 5835 5837 5839 5841 5842 5842 5843 5844 5844 5845 5845 5845 5845 5846 5845 5845 5846 5846 5845 5844 5844 5844 5844 5843 5843 5843 5842 5841 5841 5840 5839 5839
5802 5804 5806 5808 5811 5814 5817 5818 5820 5822 5823 5825 5827 5828 5830 5832 5833 5834 5834 5835 5835 5836 5837 5837 5837 5838 5838 5838 5838 5838 5837 5837 5836 5836 5836 5836 5835 5835 5834 5834 5833 5832 5831 5831
5793 5795 5798 5799 5801 5804 5809 5810 5811 5814 5814 5816 5818 5820 5821 5823 5825 5825 5825 5826 5826 5827 5827 5828 5828 5828 5828 5829 5828 5828 5828 5827 5827 5827 5826 5826 5826 5825 5825 5825 5824 5823 5823 5822
5784 5786 5788 5790 5792 5795 5799 5801 5803 5805 5806 5807 5809 5810 5812 5813 5815 5816 5816 5816 5816 5816 5817 5818 5818 5818 5818 5818 5819 5818 5818 5817 5817 5816 5816 5816 5816 5816 5816 5815 5815 5814 5813 5813
5775 5778 5779 5781 5783 5788 5790 5792 5794 5795 5797 5798 5799 5801 5802 5803 5804 5804 5805 5805 5805 5806 5807 5807 5806 5806 5807 5808 5808 5808 5807 5807 5806 5805 5805 5805 5805 5805 5805 5804 5804 5803 5803 5803
5766 5769 5771 5773 5776 5778 5780 5782 5783 5785 5787 5788 5790 5791 5792 5792 5793 5794 5794 5794 5795 5795 5795 5795 5795 5796 5795 5795 5795 5795 5796 5795 5794 5794 5794 5794 5794 5793 5792 5792 5792 5793 5792 5792
5758 5760 5762 5763 5765 5767 5770 5772 5773 5775 5776 5778 5779 5780 5781 5782 5782 5782 5782 5783 5783 5783 5781 5782 5783 5783 5783 5782 5782 5783 5783 5783 5782 5783 5783 5783 5782 5780 5780 5781 5781 5781 5781 5780
5750 5752 5753 5754 5756 5758 5760 5762 5763 5765 5766 5767 5768 5769 5769 5770 5771 5771 5771 5771 5770 5770 5771 5771 5771 5771 5771 5771 5771 5771 5771 5771 5772 5773 5772 5772 5772 5771 5770 5770 5770 5770 5770 5769
5742 5743 5745 5746 5748 5749 5751 5752 5754 5755 5756 5757 5758 5759 5759 5759 5759 5759 5760 5760 5760 5759 5759 5758 5758 5759 5759 5759 5759 5759 5760 5760 5761 5761 5762 5761 5761 5760 5759 5758 5758 5758 5758 5757